EW1682 Weather Reports


time (UTC)temp
C
wind
direction
speed
KPH
gust
KPH
rain 1hr
cm
rain 24hr
cm
rain mn
cm
humidity
%
barometer
mb
20260505122207 18 222 4.8 4.8 0.00 0.00 0.00 64 1021.3
20260505121710 18 211 3.2 8.0 0.00 0.00 0.00 64 1021.3
20260505121205 18 326 3.2 8.0 0.00 0.00 0.00 65 1021.3
20260505120707 18 199 3.2 4.8 0.00 0.00 0.00 67 1021.3
20260505120210 17 201 3.2 4.8 0.00 0.00 0.00 69 1021.3
20260505115707 17 174 1.6 4.8 0.00 0.00 0.00 69 1021.3
20260505115205 17 190 1.6 3.2 0.00 0.00 0.00 70 1021.3
20260505114706 17 189 1.6 4.8 0.00 0.00 0.00 71 1021.3
20260505114209 16 183 1.6 4.8 0.00 0.00 0.00 72 1021.3
20260505113707 16 213 1.6 3.2 0.00 0.00 0.00 73 1021.3
20260505112707 16 158 0.0 1.6 0.00 0.00 0.00 74 1021.3
20260505112211 16 195 0.0 3.2 0.00 0.00 0.00 74 1021.3
20260505111710 15 191 0.0 0.0 0.00 0.00 0.00 75 1021.3
20260505111206 15 177 0.0 0.0 0.00 0.00 0.00 75 1021.3
20260505110706 15 178 0.0 0.0 0.00 0.00 0.00 75 1021.3
20260505110206 15 202 0.0 0.0 0.00 0.00 0.00 75 1021.3
20260505101710 15 186 1.6 3.2 0.00 0.00 0.00 79 1021.3
20260505101206 15 184 1.6 3.2 0.00 0.00 0.00 80 1021.3
20260505100710 14 184 1.6 3.2 0.00 0.00 0.00 80 1021.3
20260505100206 14 205 1.6 3.2 0.00 0.00 0.00 80 1021.3
20260505095705 14 169 1.6 1.6 0.00 0.00 0.00 80 1021.3
20260505095206 14 169 1.6 1.6 0.00 0.00 0.00 80 1021.3
20260505094705 14 167 1.6 4.8 0.00 0.00 0.00 80 1021.3
20260505094206 14 242 1.6 3.2 0.00 0.00 0.00 80 1021.3
20260505093707 14 251 3.2 4.8 0.00 0.00 0.00 80 1021.3
20260505093207 14 208 1.6 3.2 0.00 0.00 0.00 80 1021.3
20260505092710 14 207 0.0 3.2 0.00 0.00 0.00 80 1021.3
20260505091711 14 203 0.0 3.2 0.00 0.00 0.00 80 1021.3
20260505091206 14 186 0.0 3.2 0.00 0.00 0.00 81 1021.3
20260505090709 14 181 3.2 4.8 0.00 0.00 0.00 81 1021.3
20260505090206 13 175 0.0 3.2 0.00 0.00 0.00 81 1021.3
20260505085707 13 210 0.0 1.6 0.00 0.00 0.00 82 1021.3
20260505085206 13 192 0.0 1.6 0.00 0.00 0.00 82 1021.3
20260505084706 13 170 0.0 1.6 0.00 0.00 0.00 82 1021.3
20260505084215 13 185 0.0 3.2 0.00 0.00 0.00 83 1021.3
20260505083708 13 217 1.6 3.2 0.00 0.00 0.00 83 1021.3
20260505083209 13 195 1.6 3.2 0.00 0.00 0.00 83 1021.3
20260505082709 13 190 1.6 3.2 0.00 0.00 0.00 83 1021.3
20260505082213 12 206 0.0 1.6 0.00 0.00 0.00 83 1021.3
20260505081708 12 188 0.0 0.0 0.00 0.00 0.00 83 1021.3
20260505080706 12 184 0.0 0.0 0.00 0.00 0.00 82 1021.3
20260505080207 12 183 1.6 1.6 0.00 0.00 0.00 81 1021.3
20260505075207 12 155 0.0 0.0 0.00 0.00 0.00 80 1021.3
20260505074708 12 155 0.0 0.0 0.00 0.00 0.00 79 1021.3
20260505074207 12 155 0.0 0.0 0.00 0.00 0.00 79 1021.3
20260505073706 12 155 0.0 1.6 0.00 0.00 0.00 77 1021.3
20260505072207 13 154 0.0 0.0 0.00 0.00 0.00 76 1021.3
20260505071707 13 154 0.0 0.0 0.00 0.00 0.00 76 1021.3
20260505070706 13 154 0.0 0.0 0.00 0.00 0.00 75 1021.3
20260505070206 13 154 0.0 0.0 0.00 0.00 0.00 75 1021.3
20260505065708 13 154 0.0 0.0 0.00 0.00 0.00 75 1021.3
20260505065208 13 154 0.0 0.0 0.00 0.00 0.00 75 1021.3
20260505064705 13 154 0.0 0.0 0.00 0.00 0.00 75 1021.3
20260505064207 14 154 1.6 1.6 0.00 0.00 0.00 76 1021.3
20260505063707 14 153 1.6 1.6 0.00 0.00 0.00 75 1021.3
20260505063207 14 153 1.6 3.2 0.00 0.00 0.00 75 1021.3
20260505062708 14 170 0.0 3.2 0.00 0.00 0.00 75 1021.3
20260505062206 14 174 0.0 3.2 0.00 0.00 0.00 75 1021.3
20260505061709 14 176 1.6 3.2 0.00 0.00 0.00 75 1021.3
20260505061206 14 174 1.6 4.8 0.00 0.00 0.00 75 1021.3
20260505060706 14 170 1.6 4.8 0.00 0.00 0.00 74 1021.3
20260505060210 14 184 1.6 4.8 0.00 0.00 0.00 74 1021.3
20260505055707 14 187 3.2 4.8 0.00 0.00 0.00 74 1021.3
20260505055207 14 188 1.6 4.8 0.00 0.00 0.00 73 1021.3
20260505054707 15 155 1.6 3.2 0.00 0.00 0.00 73 1021.3
20260505054206 15 190 1.6 3.2 0.00 0.00 0.00 73 1021.3
20260505053207 15 204 0.0 4.8 0.00 0.00 0.00 71 1021.3
20260505052706 15 208 0.0 3.2 0.00 0.00 0.00 71 1021.3
20260505051706 15 175 1.6 3.2 0.00 0.00 0.00 71 1021.3
20260505051209 15 182 1.6 4.8 0.00 0.00 0.00 71 1021.3
20260505050708 15 173 1.6 4.8 0.00 0.00 0.00 71 1021.3
20260505050208 15 184 3.2 4.8 0.00 0.00 0.00 71 1021.3
20260505041708 14 182 1.6 3.2 0.00 0.00 0.00 69 1021.3
20260505041206 14 186 1.6 3.2 0.00 0.00 0.00 69 1021.3
20260505040707 14 175 1.6 4.8 0.00 0.00 0.00 68 1021.3
20260505040207 14 211 1.6 3.2 0.00 0.00 0.00 68 1021.3
20260505035707 15 232 1.6 3.2 0.00 0.00 0.00 67 1021.3
20260505035207 15 177 1.6 3.2 0.00 0.00 0.00 67 1021.3
20260505034707 15 183 1.6 3.2 0.00 0.00 0.00 67 1021.3
20260505034208 15 182 1.6 3.2 0.00 0.00 0.00 67 1021.3
20260505033708 15 179 1.6 3.2 0.00 0.00 0.00 66 1021.3
20260505032710 15 207 3.2 4.8 0.00 0.00 0.00 66 1021.3
20260505031712 15 181 1.6 1.6 0.00 0.00 0.00 65 1021.3
20260505030710 15 209 3.2 4.8 0.00 0.00 0.00 65 1021.3
20260505030206 15 204 3.2 4.8 0.00 0.00 0.00 65 1021.3
20260505025709 15 181 3.2 4.8 0.00 0.00 0.00 65 1021.3
20260505025211 15 185 1.6 4.8 0.00 0.00 0.00 65 1021.3
20260505024708 15 185 3.2 3.2 0.00 0.00 0.00 65 1021.3
20260505020206 15 173 1.6 4.8 0.00 0.00 0.00 63 1021.3
20260505015207 15 190 1.6 4.8 0.00 0.00 0.00 62 1021.3
20260505013219 16 198 1.6 4.8 0.00 0.00 0.00 60 1021.3
20260505012219 16 189 0.0 4.8 0.00 0.00 0.00 58 1021.3
20260505011210 16 177 0.0 1.6 0.00 0.00 0.00 56 1021.3
20260505010706 16 177 0.0 1.6 0.00 0.00 0.00 56 1021.3
20260505010215 17 183 1.6 3.2 0.00 0.00 0.00 54 1021.3
20260505003711 17 199 3.2 4.8 0.00 0.00 0.00 52 1021.3
20260505001717 17 186 1.6 4.8 0.00 0.00 0.00 49 1021.3
20260505000211 18 174 3.2 8.0 0.00 0.00 0.00 47 1021.3
20260504232218 20 184 3.2 11.3 0.00 0.00 0.00 45 1021.3
20260504224708 20 210 3.2 11.3 0.00 0.00 0.00 44 1021.3
20260504224207 20 195 1.6 4.8 0.00 0.00 0.00 44 1021.3
20260504223707 21 186 1.6 11.3 0.00 0.00 0.00 43 1021.3
20260504220713 21 171 3.2 4.8 0.00 0.00 0.00 42 1021.3
20260504215210 21 199 8.0 12.9 0.00 0.00 0.00 40 1021.3
20260504213715 23 191 4.8 12.9 0.00 0.00 0.00 38 1021.3
20260504212719 23 207 4.8 12.9 0.00 0.00 0.00 35 1021.3
20260504210712 23 218 3.2 11.3 0.00 0.00 0.00 29 1021.3
20260504210213 23 220 3.2 8.0 0.00 0.00 0.00 29 1021.3
20260504203716 23 218 3.2 9.7 0.00 0.00 0.00 29 1021.3
20260504202221 23 222 4.8 9.7 0.00 0.00 0.00 28 1021.3
20260504192218 24 244 3.2 8.0 0.00 0.00 0.00 27 1021.3
20260504190207 24 204 3.2 8.0 0.00 0.00 0.00 27 1021.3
20260504180209 23 238 3.2 9.7 0.00 0.00 0.00 29 1021.3
20260504175707 23 229 3.2 9.7 0.00 0.00 0.00 29 1021.3
20260504173706 23 239 4.8 8.0 0.00 0.00 0.00 29 1021.3
20260504150209 19 206 3.2 8.0 0.00 0.00 0.00 39 1021.3
20260504140206 18 225 8.0 16.1 0.00 0.00 0.00 40 1021.3